N7QNM-13 Weather Reports


time (UTC)temp
C
wind
direction
speed
KPH
gust
KPH
rain 1hr
cm
rain 24hr
cm
rain mn
cm
humidity
%
barometer
mb
20260506192042 27 166 12.9 20.9 0.00 0.00 0.00 38 1011.8
20260506191043 27 179 14.5 24.1 0.00 0.00 0.00 38 1011.8
20260506190043 26 165 12.9 22.5 0.00 0.00 0.00 40 1011.9
20260506185104 26 167 12.9 22.5 0.00 0.00 0.00 43 1011.9
20260506184043 26 171 12.9 24.1 0.00 0.00 0.00 43 1011.9
20260506183103 25 169 11.3 25.7 0.00 0.00 0.00 44 1012.1
20260506182103 25 165 4.8 14.5 0.00 0.00 0.00 45 1012.3
20260506181043 25 164 11.3 25.7 0.00 0.00 0.00 45 1012.3
20260506180044 25 171 14.5 24.1 0.00 0.00 0.00 45 1012.3
20260506175043 25 161 4.8 14.5 0.00 0.00 0.00 45 1012.4
20260506174043 25 180 4.8 16.1 0.00 0.00 0.00 45 1012.4
20260506173104 25 154 6.4 20.9 0.00 0.00 0.00 44 1012.4
20260506172044 25 188 6.4 22.5 0.00 0.00 0.00 45 1012.5
20260506171044 23 297 3.2 8.0 0.00 0.00 0.00 48 1012.6
20260506170104 23 34 6.4 12.9 0.00 0.00 0.00 47 1012.7
20260506165044 23 34 1.6 9.7 0.00 0.00 0.00 46 1012.8
20260506164044 23 47 6.4 14.5 0.00 0.00 0.00 47 1012.8
20260506163045 23 86 1.6 11.3 0.00 0.00 0.00 46 1012.9
20260506162044 23 52 1.6 9.7 0.00 0.00 0.00 45 1013.0
20260506161105 23 48 0.0 6.4 0.00 0.00 0.00 46 1013.1
20260506160045 23 81 1.6 6.4 0.00 0.00 0.00 48 1013.1
20260506155045 22 51 1.6 8.0 0.00 0.00 0.00 50 1013.0
20260506154045 22 31 0.0 3.2 0.00 0.00 0.00 51 1013.0
20260506153046 21 55 1.6 6.4 0.00 0.00 0.00 53 1012.9
20260506152046 20 0.0 0.0 0.00 0.00 0.00 55 1013.0
20260506151106 20 32 0.0 1.6 0.00 0.00 0.00 58 1013.0
20260506150046 19 43 1.6 4.8 0.00 0.00 0.00 60 1013.0
20260506145046 18 0.0 0.0 0.00 0.00 0.00 62 1013.0
20260506144046 18 46 0.0 4.8 0.00 0.00 0.00 64 1013.0
20260506143046 17 18 0.0 3.2 0.00 0.00 0.00 68 1013.0
20260506142046 16 350 0.0 1.6 0.00 0.00 0.00 71 1012.9
20260506141046 15 245 0.0 4.8 0.00 0.00 0.00 74 1012.8
20260506140106 14 0.0 0.0 0.00 0.00 0.00 78 1012.8
20260506135047 13 0.0 0.0 0.00 0.00 0.00 79 1012.7
20260506134047 12 107 0.0 3.2 0.00 0.00 0.00 81 1012.6
20260506133048 12 140 1.6 6.4 0.00 0.00 0.00 82 1012.6
20260506132047 11 119 0.0 1.6 0.00 0.00 0.00 83 1012.4
20260506131047 11 114 6.4 9.7 0.00 0.00 0.00 84 1012.3
20260506130047 10 74 8.0 12.9 0.00 0.00 0.00 84 1012.2
20260506125047 10 133 0.0 1.6 0.00 0.00 0.00 82 1012.1
20260506124047 10 342 0.0 1.6 0.00 0.00 0.00 82 1012.0
20260506123047 10 179 0.0 3.2 0.00 0.00 0.00 81 1012.0
20260506122107 10 146 0.0 0.0 0.00 0.00 0.00 81 1011.9
20260506121048 10 0.0 0.0 0.00 0.00 0.00 81 1011.8
20260506120047 10 131 0.0 4.8 0.00 0.00 0.00 81 1011.8
20260506115048 10 125 1.6 6.4 0.00 0.00 0.00 81 1011.7
20260506114048 11 156 0.0 3.2 0.00 0.00 0.00 80 1011.7
20260506113048 10 147 1.6 9.7 0.00 0.00 0.00 80 1011.7
20260506112048 11 151 0.0 4.8 0.00 0.00 0.00 79 1011.6
20260506111049 11 0.0 0.0 0.00 0.00 0.00 78 1011.5
20260506110049 11 163 0.0 3.2 0.00 0.00 0.00 78 1011.4
20260506105108 11 152 0.0 1.6 0.00 0.00 0.00 77 1011.3
20260506104049 11 114 1.6 6.4 0.00 0.00 0.00 75 1011.3
20260506103049 11 137 0.0 1.6 0.00 0.00 0.00 74 1011.2
20260506102049 11 226 1.6 4.8 0.00 0.00 0.00 75 1011.1
20260506101049 11 199 1.6 6.4 0.00 0.00 0.00 75 1011.2
20260506100049 12 167 0.0 1.6 0.00 0.00 0.00 74 1011.1
20260506095049 12 0.0 0.0 0.00 0.00 0.00 74 1011.2
20260506094050 12 150 0.0 3.2 0.00 0.00 0.00 73 1011.1
20260506093109 13 85 0.0 3.2 0.00 0.00 0.00 71 1011.1
20260506092049 13 85 0.0 3.2 0.00 0.00 0.00 70 1011.0
20260506091050 13 246 1.6 4.8 0.00 0.00 0.00 69 1011.0
20260506090050 14 195 0.0 4.8 0.00 0.00 0.00 68 1010.9
20260506085051 15 133 0.0 4.8 0.00 0.00 0.00 66 1010.9
20260506084050 15 0.0 0.0 0.00 0.00 0.00 65 1010.9
20260506083051 16 230 0.0 3.2 0.00 0.00 0.00 62 1010.9
20260506082050 16 225 0.0 1.6 0.00 0.00 0.00 61 1010.8
20260506081050 17 96 0.0 1.6 0.00 0.00 0.00 60 1010.7
20260506073051 19 0.0 0.0 0.00 0.00 0.00 53 1010.5
20260506072051 20 297 0.0 6.4 0.00 0.00 0.00 51 1010.3
20260506071051 20 131 0.0 4.8 0.00 0.00 0.00 48 1010.2
20260506070111 21 106 0.0 3.2 0.00 0.00 0.00 46 1010.0
20260506062052 23 272 6.4 12.9 0.00 0.00 0.00 38 1009.8
20260506061052 23 180 9.7 17.7 0.00 0.00 0.00 38 1009.6
20260506051052 24 167 8.0 17.7 0.00 0.00 0.00 37 1009.4
20260506045114 25 194 3.2 9.7 0.00 0.00 0.00 35 1009.4
20260506044053 25 173 6.4 17.7 0.00 0.00 0.00 34 1009.3
20260506043054 25 167 6.4 16.1 0.00 0.00 0.00 34 1009.2
20260506042114 25 161 6.4 16.1 0.00 0.00 0.00 34 1009.2
20260506041054 25 165 4.8 14.5 0.00 0.00 0.00 35 1009.1
20260506040055 25 160 6.4 16.1 0.00 0.00 0.00 35 1009.1
20260506035055 25 162 6.4 14.5 0.00 0.00 0.00 36 1009.0
20260506034055 25 154 1.6 9.7 0.00 0.00 0.00 38 1008.9
20260506033055 25 146 1.6 8.0 0.00 0.00 0.00 38 1008.9
20260506032055 25 164 6.4 12.9 0.00 0.00 0.00 38 1008.9
20260506031056 26 160 11.3 19.3 0.00 0.00 0.00 37 1008.9
20260506030055 26 155 9.7 16.1 0.00 0.00 0.00 36 1008.8
20260506025055 27 159 8.0 14.5 0.00 0.00 0.00 36 1008.8
20260506024056 28 157 4.8 16.1 0.00 0.00 0.00 35 1008.7
20260506023055 28 108 1.6 12.9 0.00 0.00 0.00 34 1008.7
20260506022056 28 107 1.6 8.0 0.00 0.00 0.00 35 1008.7
20260506021055 29 101 3.2 11.3 0.00 0.00 0.00 33 1008.7
20260506020056 29 135 3.2 9.7 0.00 0.00 0.00 33 1008.6
20260506015056 30 56 4.8 12.9 0.00 0.00 0.00 33 1008.5
20260506014137 30 52 3.2 11.3 0.00 0.00 0.00 32 1008.5
20260506013056 31 50 4.8 11.3 0.00 0.00 0.00 31 1008.5
20260506012059 31 50 3.2 9.7 0.00 0.00 0.00 31 1008.6
20260506011056 30 0.0 0.0 0.00 0.00 0.00 31 1008.6
20260506010057 30 20 3.2 9.7 0.00 0.00 0.00 31 1008.6
20260506005057 30 281 0.0 6.4 0.00 0.00 0.00 31 1008.6
20260506004057 30 38 0.0 6.4 0.00 0.00 0.00 31 1008.6
20260506003057 30 47 1.6 9.7 0.00 0.00 0.00 31 1008.7
20260506002057 29 47 1.6 8.0 0.00 0.00 0.00 32 1008.7
20260506001117 29 57 4.8 14.5 0.00 0.00 0.00 32 1008.8
20260506000057 30 45 4.8 17.7 0.00 0.00 0.00 33 1008.9
20260505235057 30 275 4.8 9.7 0.00 0.00 0.00 33 1009.0
20260505234057 29 59 1.6 9.7 0.00 0.00 0.00 32 1009.0
20260505233058 29 61 6.4 17.7 0.00 0.00 0.00 33 1009.1
20260505232057 29 45 3.2 12.9 0.00 0.00 0.00 33 1009.1
20260505231058 29 60 4.8 12.9 0.00 0.00 0.00 34 1009.2
20260505230118 29 57 8.0 17.7 0.00 0.00 0.00 34 1009.3
20260505225139 28 75 6.4 12.9 0.00 0.00 0.00 34 1009.4
20260505224058 28 47 1.6 11.3 0.00 0.00 0.00 34 1009.4
20260505223058 29 88 6.4 14.5 0.00 0.00 0.00 34 1009.5
20260505222059 29 39 0.0 4.8 0.00 0.00 0.00 33 1009.5
20260505221058 30 36 3.2 16.1 0.00 0.00 0.00 34 1009.6
20260505220059 30 135 3.2 12.9 0.00 0.00 0.00 34 1009.7
20260505215101 29 178 0.0 4.8 0.00 0.00 0.00 33 1009.7
20260505214059 28 46 4.8 11.3 0.00 0.00 0.00 34 1009.8
20260505213119 28 54 4.8 16.1 0.00 0.00 0.00 34 1009.9
20260505212058 28 62 1.6 8.0 0.00 0.00 0.00 34 1009.9
20260505211059 28 295 3.2 12.9 0.00 0.00 0.00 37 1010.1
20260505210059 27 58 4.8 17.7 0.00 0.00 0.00 36 1010.1
20260505205059 27 29 3.2 12.9 0.00 0.00 0.00 38 1010.1
20260505204100 27 16 1.6 11.3 0.00 0.00 0.00 36 1010.2
20260505203100 27 43 3.2 16.1 0.00 0.00 0.00 36 1010.3
20260505202059 27 16 1.6 8.0 0.00 0.00 0.00 37 1010.4
20260505201120 27 41 4.8 16.1 0.00 0.00 0.00 38 1010.5
20260505200119 27 46 3.2 11.3 0.00 0.00 0.00 38 1010.5
20260505195100 27 328 1.6 4.8 0.00 0.00 0.00 37 1010.6
20260505194100 27 34 1.6 9.7 0.00 0.00 0.00 37 1010.7
20260505193100 27 193 1.6 6.4 0.00 0.00 0.00 38 1010.7